Showing default

EAGLESAT 1, 43018

Orbit data source: Space-Track

EAGLESAT 1, 43018 is a payload satellite owned by Embry-Riddle (US) in SSO that was launched on Sat, 18 Nov 2017 UTC via a DELTA 7920-10C launch vehicle from the Air Force Western Test Range (AFWTR). Payload-class satellites include a variety of spacecraft equipped with specific instruments for various scientific and technological missions. These include communications satellites like Starlink; space stations such as the ISS; scientific satellites like the Hubble; Earth observation satellites from companies like Planet Labs, Umbra, and HawkEye 360; GPS; miniature CubeSats for education and research; and military/defense satellites.

Loading next visibility...
Identifier
43018, 2017-073F
Orbit
SSO
Last TLE update
22 hours ago
Origin
Manufacturer
Embry-Riddle
Mission
Non-operational Amateur Technology
Bus & Motor
CUBESAT 1U, Unknown motor
Mass
1 kg wet, 1 kg dry
Launch date (UTC)
2017-11-18 (7 years ago)
Launch vehicle
DELTA 7920-10C
Launch site
Air Force Western Test Range (AFWTR)
Object type
Payload
Rocket body
Debris
Shape & HBR
Box, 0.1 m
Radar Cross Section
0.015 m², Small (<0.1 m²)

Expand to show TLE details & history

TLE from 22 hours ago
0 EAGLESAT 1
1 43018U 17073F   25128.42878891  .00050932  00000-0  10282-2 0  9993
2 43018  97.5451  20.9789 0092788 208.1018 151.5204 15.41727541405541
Epoch: 2025-05-08T10:17Z
Definitive object data (Epoch: 2025-05-08T10:17:27.361Z)
Latitude
-0.00003°
Longitude
0.11548°
Altitude
499.887 km
Speed
7.583 km/s
True Right ascension
01h 23m 54s
True Declination
0° 00' 00"
Sunlit
Object was in daylight at TLE epoch
Visualization TLE readout
Latitude
27.72174°
Longitude
-2.90912°
Altitude
507.406 km
Speed
7.578 km/s
Apparent Right ascension
02h 36m 03s
Apparent Declination
-5° 01' 28"
Sunlit
Object is in daylight
Visualization observer readout
Local Sidereal Time
16:22:23
Azimuth
41.463° NE
Elevation
-47.687°
Doppler factor
1
Orbital elements
Apogee altitude
501.198 km
Perigee altitude
374.708 km
Semi-major axis
6,816.09 km
Eccentricity
0.0092788
Inclination
97.5451°
RAAN
20.9789°
Arg. of periapsis
208.1018°
True anomaly
152.02229°
Mean anomaly
151.5204°
Eccentric anomaly
151.77186°
Mean motion
3.85692 °/min
BSTAR
0.0010282
Orbital period
93.34 mins
Loading maneuver chart data...
Loading SW <> Apogee altitude chart data...
Loading historical data...
Loading historical data...
Loading historical data...
Loading historical data...
Loading historical data...
Loading historical data...
Loading historical data...
Other satellites on launch #73 in the year 2017 (2017-11-18 UTC)

EAGLESAT 1 Visibility forecast

Observer location: undefined°, undefined°

Span
Click to sort rows by Start time (UTC) header in descending order
Start Az.
Max El. time (UTC)
Max El. Az.
Max El.
End time (UTC)
End Az.
5 mins2025-05-09 16:02:15.414Z113.234° SE2025-05-09 16:04:15.414Z75.834° E19.538°2025-05-09 16:07:15.414Z20.194° NNE
4 mins2025-05-09 17:35:15.414Z226.588° WSW2025-05-09 17:37:15.414Z273.116° WNW21.339°2025-05-09 17:39:15.414Z311.796° NW
|